Regional Weather Roundup
Issued by NWS

Home | Current Version | Previous Version | Graphics & Text | Print | Product List | Glossary On
Versions: 1 2 3 4 5 6 7 8 9 10 11 12 13 14 15 16 17 18 19 20 21 22 23 24 25 26 27 28 29 30 31 32 33 34 35 36 37 38 39 40 41 42 43 44 45 46 47 48 49 50
000
ASUS43 KTOP 311108
RWRKS

WEATHER ROUNDUP FOR KANSAS
NATIONAL WEATHER SERVICE GOODLAND KS
600 AM CDT THU JUL 31 2014

NOTE:  "FAIR" INDICATES FEW OR NO CLOUDS BELOW 12,000 FEET WITH NO
SIGNIFICANT WEATHER AND/OR OBSTRUCTIONS TO VISIBILITY.

KSZ001>006-013>018-027>032-041>047-311200-
NORTHWEST KANSAS

CITY           SKY/WX    TMP DP  RH WIND       PRES   REMARKS
GOODLAND       PTCLDY    57  55  93 W8        30.22F
HAYS           CLEAR     55  52  88 CALM      30.15S
HILL CITY      CLEAR     55  51  86 W6        30.16S
RUSSELL        CLEAR     57  55  93 SW5       30.13F
$$

KSZ061>065-074>080-084>089-311200-
SOUTHWEST KANSAS

CITY           SKY/WX    TMP DP  RH WIND       PRES   REMARKS
DODGE CITY     CLEAR     58  54  86 W5        30.17F
ELKHART          N/A     57  55  93 W5          N/A
GARDEN CITY    CLEAR     57  55  93 NW7       30.19F
GREAT BEND     CLEAR     57  54  88 SW3       30.15S
LIBERAL        CLEAR     55  52  88 W5        30.21F
PRATT          CLEAR     55  54  94 N5        30.16F
$$

KSZ066>073-081>083-090>101-311200-
SOUTHEAST KANSAS

CITY           SKY/WX    TMP DP  RH WIND       PRES   REMARKS
CHANUTE        PTCLDY    60  59  96 N3        30.10S FOG
COFFEYVILLE    CLOUDY    66  64  93 NE6       30.08S
HUTCHINSON     CLEAR     56  54  93 W6        30.14S FOG
MEDICINE LODGE   N/A     58  57  97 N6        30.13F
NEWTON         CLEAR     57  52  82 N5        30.16R
PARSONS        CLEAR     63  61  93 N3        30.10S FOG
WICHITA INTL   PTCLDY    60  58  92 N10       30.13R
WICHITA JABRA  CLEAR     59  58  96 NW7       30.12R
WICHITA MCCONL CLEAR     60  60 100 N5        30.13R
WINFIELD       FOG       63  63 100 N7        30.12R VSB 1/2
$$

KSZ007>012-019>026-033>040-048>060-102>105-311200-
NORTHEAST KANSAS

CITY           SKY/WX    TMP DP  RH WIND       PRES   REMARKS
CONCORDIA      CLEAR     55  53  93 CALM      30.13S
EMPORIA        MOCLDY    57  57 100 NW5       30.11S
LAWRENCE       CLEAR     54  52  93 NW6       30.11S
MANHATTAN      CLEAR     55  54  96 CALM      30.13R FOG
MARYSVILLE     CLEAR     52  50  93 CALM      30.12S
OLATHE IND     PTCLDY    59  57  93 NW3       30.11S
OLATHE EXE     PTCLDY    61  58  90 N3        30.10S
SALINA         CLEAR     56  54  93 CALM      30.14R FOG
TOPEKA BILLARD CLEAR     57  55  93 CALM      30.11S
TOPEKA FORBES  CLEAR     56  55  97 CALM      30.11S
$$


USA.gov is the U.S. government's official web portal to all federal, state and local government web resources and services.